Time,TemperatureF,DewpointF,PressureIn,WindDirection,WindDirectionDegrees,WindSpeedMPH,WindSpeedGustMPH,Humidity,HourlyPrecipIn,Conditions,Clouds,dailyrainin,SoftwareType,DateUTC
2013-05-16 00:00:00,53.0,50.1,30.01,ESE,112,1.0,8.0,90,0.00,,,0.00,LWC V2.00 B2112,2013-05-16 07:00:00,
2013-05-16 00:10:00,53.1,50.3,30.01,SE,135,1.0,5.0,90,0.00,,,0.00,LWC V2.00 B2112,2013-05-16 07:10:00,
2013-05-16 00:20:00,53.1,50.3,30.01,SE,135,1.0,5.0,90,0.00,,,0.00,LWC V2.00 B2112,2013-05-16 07:20:00,
2013-05-16 00:30:00,53.1,50.3,30.01,SE,135,1.0,5.0,90,0.00,,,0.00,LWC V2.00 B2112,2013-05-16 07:30:00,
2013-05-16 00:40:00,53.3,50.4,30.00,ESE,112,1.0,6.0,90,0.00,,,0.00,LWC V2.00 B2112,2013-05-16 07:40:00,
2013-05-16 00:50:00,53.3,50.4,30.00,ESE,112,1.0,6.0,90,0.00,,,0.00,LWC V2.00 B2112,2013-05-16 07:50:00,
2013-05-16 01:00:00,53.3,50.4,30.00,ESE,112,1.0,6.0,90,0.00,,,0.00,LWC V2.00 B2112,2013-05-16 08:00:00,
2013-05-16 01:10:00,53.1,50.3,30.00,NW,315,1.0,6.0,90,0.00,,,0.00,LWC V2.00 B2112,2013-05-16 08:10:00,
2013-05-16 01:20:00,53.1,50.3,30.00,NW,315,1.0,6.0,90,0.00,,,0.00,LWC V2.00 B2112,2013-05-16 08:20:00,
2013-05-16 01:30:00,53.1,50.3,30.00,NW,315,1.0,6.0,90,0.00,,,0.00,LWC V2.00 B2112,2013-05-16 08:30:00,
2013-05-16 01:40:00,53.1,50.3,29.99,East,90,1.0,5.0,90,0.00,,,0.00,LWC V2.00 B2112,2013-05-16 08:40:00,
2013-05-16 01:50:00,53.1,50.3,29.99,East,90,1.0,5.0,90,0.00,,,0.00,LWC V2.00 B2112,2013-05-16 08:50:00,
2013-05-16 02:00:00,53.1,50.3,29.99,East,90,1.0,5.0,90,0.00,,,0.00,LWC V2.00 B2112,2013-05-16 09:00:00,
2013-05-16 02:10:00,53.2,50.6,29.98,East,90,1.0,6.0,91,0.00,,,0.00,LWC V2.00 B2112,2013-05-16 09:10:00,
2013-05-16 02:20:00,53.2,50.6,29.98,East,90,1.0,6.0,91,0.00,,,0.00,LWC V2.00 B2112,2013-05-16 09:20:00,
2013-05-16 02:30:00,53.2,50.6,29.98,East,90,1.0,6.0,91,0.00,,,0.00,LWC V2.00 B2112,2013-05-16 09:30:00,
2013-05-16 02:40:00,53.1,50.5,29.98,ENE,68,1.0,6.0,91,0.00,,,0.00,LWC V2.00 B2112,2013-05-16 09:40:00,
2013-05-16 02:50:00,53.1,50.5,29.98,ENE,68,1.0,6.0,91,0.00,,,0.00,LWC V2.00 B2112,2013-05-16 09:50:00,
2013-05-16 03:00:00,53.1,50.5,29.98,ENE,68,1.0,6.0,91,0.00,,,0.00,LWC V2.00 B2112,2013-05-16 10:00:00,
2013-05-16 03:10:00,53.1,50.5,29.97,NNW,338,1.0,9.0,91,0.00,,,0.00,LWC V2.00 B2112,2013-05-16 10:10:00,
2013-05-16 03:20:00,53.1,50.5,29.97,NNW,338,1.0,9.0,91,0.00,,,0.00,LWC V2.00 B2112,2013-05-16 10:20:00,
2013-05-16 03:30:00,53.1,50.5,29.97,NNW,338,1.0,9.0,91,0.00,,,0.00,LWC V2.00 B2112,2013-05-16 10:30:00,
2013-05-16 03:40:00,52.9,50.3,29.97,NW,315,1.0,7.0,91,0.00,,,0.00,LWC V2.00 B2112,2013-05-16 10:40:00,
2013-05-16 03:50:00,52.9,50.3,29.97,NW,315,1.0,7.0,91,0.00,,,0.00,LWC V2.00 B2112,2013-05-16 10:50:00,
2013-05-16 04:00:00,52.9,50.3,29.97,NW,315,1.0,7.0,91,0.00,,,0.00,LWC V2.00 B2112,2013-05-16 11:00:00,
2013-05-16 04:10:00,52.9,50.3,29.97,NW,315,1.0,8.0,91,0.00,,,0.00,LWC V2.00 B2112,2013-05-16 11:10:00,
2013-05-16 04:20:00,52.9,50.3,29.97,NW,315,1.0,8.0,91,0.00,,,0.00,LWC V2.00 B2112,2013-05-16 11:20:00,
2013-05-16 04:30:00,52.9,50.3,29.97,NW,315,1.0,8.0,91,0.00,,,0.00,LWC V2.00 B2112,2013-05-16 11:30:00,
2013-05-16 04:40:00,53.2,50.6,29.97,NW,315,1.0,7.0,91,0.00,,,0.00,LWC V2.00 B2112,2013-05-16 11:40:00,
2013-05-16 04:50:00,53.2,50.6,29.97,NW,315,1.0,7.0,91,0.00,,,0.00,LWC V2.00 B2112,2013-05-16 11:50:00,
2013-05-16 05:00:00,53.2,50.6,29.97,NW,315,1.0,7.0,91,0.00,,,0.00,LWC V2.00 B2112,2013-05-16 12:00:00,
2013-05-16 05:10:00,53.2,50.6,29.97,NNW,338,1.0,6.0,91,0.00,,,0.00,LWC V2.00 B2112,2013-05-16 12:10:00,
2013-05-16 05:20:00,53.2,50.6,29.97,NNW,338,1.0,6.0,91,0.00,,,0.00,LWC V2.00 B2112,2013-05-16 12:20:00,
2013-05-16 05:30:00,53.2,50.6,29.97,NNW,338,1.0,6.0,91,0.00,,,0.00,LWC V2.00 B2112,2013-05-16 12:30:00,
2013-05-16 05:40:00,53.4,50.8,29.97,NW,315,1.0,7.0,91,0.00,,,0.00,LWC V2.00 B2112,2013-05-16 12:40:00,
2013-05-16 05:50:00,53.4,50.8,29.97,NW,315,1.0,7.0,91,0.00,,,0.00,LWC V2.00 B2112,2013-05-16 12:50:00,
2013-05-16 06:00:00,53.4,50.8,29.97,NW,315,1.0,7.0,91,0.00,,,0.00,LWC V2.00 B2112,2013-05-16 13:00:00,
2013-05-16 06:10:00,53.4,50.8,29.98,ESE,112,1.0,6.0,91,0.00,,,0.00,LWC V2.00 B2112,2013-05-16 13:10:00,
2013-05-16 06:20:00,53.4,50.8,29.98,ESE,112,1.0,6.0,91,0.00,,,0.00,LWC V2.00 B2112,2013-05-16 13:20:00,
2013-05-16 06:30:00,53.4,50.8,29.98,ESE,112,1.0,6.0,91,0.00,,,0.00,LWC V2.00 B2112,2013-05-16 13:30:00,
2013-05-16 06:40:00,53.1,50.5,29.98,NNW,338,1.0,5.0,91,0.00,,,0.00,LWC V2.00 B2112,2013-05-16 13:40:00,
2013-05-16 06:50:00,53.1,50.5,29.98,NNW,338,1.0,5.0,91,0.00,,,0.00,LWC V2.00 B2112,2013-05-16 13:50:00,
2013-05-16 07:00:00,53.1,50.5,29.98,NNW,338,1.0,5.0,91,0.00,,,0.00,LWC V2.00 B2112,2013-05-16 14:00:00,
2013-05-16 07:10:00,53.5,50.9,29.99,East,90,1.0,4.0,91,0.00,,,0.00,LWC V2.00 B2112,2013-05-16 14:10:00,
2013-05-16 07:26:00,53.6,51.0,30.00,ENE,76,0.0,1.0,91,0.00,,,0.00,LWC V2.00 B2112,2013-05-16 14:26:00,
2013-05-16 07:31:00,53.8,51.2,30.00,NE,53,2.0,2.0,91,0.00,,,0.00,LWC V2.00 B2112,2013-05-16 14:31:00,
2013-05-16 07:36:00,54.0,51.4,30.00,NE,50,0.0,3.0,91,0.00,,,0.00,LWC V2.00 B2112,2013-05-16 14:36:00,
2013-05-16 07:41:00,54.2,51.6,30.00,SE,125,0.0,3.0,91,0.00,,,0.00,LWC V2.00 B2112,2013-05-16 14:41:00,
2013-05-16 07:46:00,54.3,51.7,30.00,North,357,0.0,3.0,91,0.00,,,0.00,LWC V2.00 B2112,2013-05-16 14:46:00,
2013-05-16 07:51:00,54.4,51.8,30.00,WSW,255,0.0,5.0,91,0.00,,,0.00,LWC V2.00 B2112,2013-05-16 14:51:00,
2013-05-16 07:56:00,54.6,52.0,30.00,NNW,341,2.0,3.0,91,0.00,,,0.00,LWC V2.00 B2112,2013-05-16 14:56:00,
2013-05-16 08:01:00,54.8,52.2,30.00,NW,323,2.0,2.0,91,0.00,,,0.00,LWC V2.00 B2112,2013-05-16 15:01:00,
2013-05-16 08:06:00,55.0,52.4,30.00,NNW,330,0.0,2.0,91,0.00,,,0.00,LWC V2.00 B2112,2013-05-16 15:06:00,
2013-05-16 08:11:00,55.1,52.5,30.00,NE,39,2.0,2.0,91,0.00,,,0.00,LWC V2.00 B2112,2013-05-16 15:11:00,
2013-05-16 08:16:00,55.2,52.6,30.00,NE,55,0.0,3.0,91,0.00,,,0.00,LWC V2.00 B2112,2013-05-16 15:16:00,
2013-05-16 08:21:00,55.4,52.8,30.00,ESE,109,1.0,4.0,91,0.00,,,0.00,LWC V2.00 B2112,2013-05-16 15:21:00,
2013-05-16 08:26:00,55.5,52.6,30.00,South,172,2.0,2.0,90,0.00,,,0.00,LWC V2.00 B2112,2013-05-16 15:26:00,
2013-05-16 08:31:00,55.7,52.8,30.00,NW,310,1.0,7.0,90,0.00,,,0.00,LWC V2.00 B2112,2013-05-16 15:31:00,
2013-05-16 08:36:00,55.8,52.9,30.00,East,92,1.0,2.0,90,0.00,,,0.00,LWC V2.00 B2112,2013-05-16 15:36:00,
2013-05-16 08:41:00,56.2,53.3,30.00,NNW,338,1.0,4.0,90,0.00,,,0.00,LWC V2.00 B2112,2013-05-16 15:41:00,
2013-05-16 08:46:00,56.6,53.7,30.00,East,90,1.0,4.0,90,0.00,,,0.00,LWC V2.00 B2112,2013-05-16 15:46:00,
2013-05-16 08:51:00,57.0,54.1,30.00,North,358,1.0,1.0,90,0.00,,,0.00,LWC V2.00 B2112,2013-05-16 15:51:00,
2013-05-16 08:56:00,57.3,54.1,30.00,WSW,255,1.0,3.0,89,0.00,,,0.00,LWC V2.00 B2112,2013-05-16 15:56:00,
2013-05-16 09:01:00,57.4,54.2,30.00,SSE,155,0.0,1.0,89,0.00,,,0.00,LWC V2.00 B2112,2013-05-16 16:01:00,
2013-05-16 09:06:00,57.7,54.5,30.00,NW,311,2.0,2.0,89,0.00,,,0.00,LWC V2.00 B2112,2013-05-16 16:06:00,
2013-05-16 09:11:00,57.8,54.6,30.00,ENE,72,0.0,3.0,89,0.00,,,0.00,LWC V2.00 B2112,2013-05-16 16:11:00,
2013-05-16 09:16:00,58.0,54.5,30.00,East,90,1.0,4.0,88,0.00,,,0.00,LWC V2.00 B2112,2013-05-16 16:16:00,
2013-05-16 09:21:00,58.3,54.8,30.00,ESE,110,0.0,4.0,88,0.00,,,0.00,LWC V2.00 B2112,2013-05-16 16:21:00,
2013-05-16 09:26:00,58.8,55.3,30.00,East,88,1.0,4.0,88,0.00,,,0.00,LWC V2.00 B2112,2013-05-16 16:26:00,
2013-05-16 09:32:00,59.2,55.3,30.00,ENE,63,2.0,3.0,87,0.00,,,0.00,LWC V2.00 B2112,2013-05-16 16:32:00,
2013-05-16 09:37:00,59.5,55.6,30.00,ENE,69,1.0,2.0,87,0.00,,,0.00,LWC V2.00 B2112,2013-05-16 16:37:00,
2013-05-16 09:42:00,59.6,55.7,30.00,East,100,1.0,2.0,87,0.00,,,0.00,LWC V2.00 B2112,2013-05-16 16:42:00,
2013-05-16 09:47:00,59.8,55.6,29.99,ESE,108,0.0,4.0,86,0.00,,,0.00,LWC V2.00 B2112,2013-05-16 16:47:00,
2013-05-16 09:52:00,60.0,55.8,29.99,ESE,110,2.0,3.0,86,0.00,,,0.00,LWC V2.00 B2112,2013-05-16 16:52:00,
2013-05-16 09:57:00,60.6,56.4,29.99,SE,135,1.0,4.0,86,0.00,,,0.00,LWC V2.00 B2112,2013-05-16 16:57:00,
2013-05-16 10:02:00,61.3,56.7,29.99,NNW,330,1.0,4.0,85,0.00,,,0.00,LWC V2.00 B2112,2013-05-16 17:02:00,
2013-05-16 10:07:00,61.8,56.9,29.99,NW,316,1.0,3.0,84,0.00,,,0.00,LWC V2.00 B2112,2013-05-16 17:07:00,
2013-05-16 10:12:00,62.2,56.6,30.00,ENE,74,2.0,7.0,82,0.00,,,0.00,LWC V2.00 B2112,2013-05-16 17:12:00,
2013-05-16 10:17:00,62.1,56.9,29.99,NW,322,1.0,3.0,83,0.00,,,0.00,LWC V2.00 B2112,2013-05-16 17:17:00,
2013-05-16 10:22:00,62.5,56.9,29.99,NW,306,1.0,5.0,82,0.00,,,0.00,LWC V2.00 B2112,2013-05-16 17:22:00,
2013-05-16 10:27:00,63.0,57.4,29.99,North,359,1.0,4.0,82,0.00,,,0.00,LWC V2.00 B2112,2013-05-16 17:27:00,
2013-05-16 10:32:00,63.4,57.5,29.99,NW,304,2.0,4.0,81,0.00,,,0.00,LWC V2.00 B2112,2013-05-16 17:32:00,
2013-05-16 10:37:00,63.4,57.5,29.99,East,99,1.0,1.0,81,0.00,,,0.00,LWC V2.00 B2112,2013-05-16 17:37:00,
2013-05-16 10:42:00,63.4,57.1,29.99,NW,313,1.0,6.0,80,0.00,,,0.00,LWC V2.00 B2112,2013-05-16 17:42:00,
2013-05-16 10:47:00,63.9,57.6,30.00,East,101,3.0,5.0,80,0.00,,,0.00,LWC V2.00 B2112,2013-05-16 17:47:00,
2013-05-16 10:52:00,63.4,57.1,30.00,NE,51,1.0,4.0,80,0.00,,,0.00,LWC V2.00 B2112,2013-05-16 17:52:00,
2013-05-16 10:57:00,63.3,57.0,30.00,East,91,1.0,5.0,80,0.00,,,0.00,LWC V2.00 B2112,2013-05-16 17:57:00,
2013-05-16 11:02:00,63.5,57.6,30.00,ESE,105,1.0,1.0,81,0.00,,,0.00,LWC V2.00 B2112,2013-05-16 18:02:00,
2013-05-16 11:07:00,63.4,56.8,30.00,East,98,4.0,4.0,79,0.00,,,0.00,LWC V2.00 B2112,2013-05-16 18:07:00,
2013-05-16 11:12:00,63.2,56.9,30.00,NE,44,1.0,6.0,80,0.00,,,0.00,LWC V2.00 B2112,2013-05-16 18:12:00,
2013-05-16 11:17:00,63.4,57.1,30.00,NE,39,1.0,4.0,80,0.00,,,0.00,LWC V2.00 B2112,2013-05-16 18:17:00,
2013-05-16 11:22:00,63.4,56.8,30.00,South,169,0.0,5.0,79,0.00,,,0.00,LWC V2.00 B2112,2013-05-16 18:22:00,
2013-05-16 11:27:00,63.6,57.0,30.00,WSW,249,1.0,6.0,79,0.00,,,0.00,LWC V2.00 B2112,2013-05-16 18:27:00,
2013-05-16 11:32:00,63.7,57.1,30.00,WNW,299,0.0,6.0,79,0.00,,,0.00,LWC V2.00 B2112,2013-05-16 18:32:00,
2013-05-16 11:37:00,64.1,57.8,30.00,East,94,0.0,2.0,80,0.00,,,0.00,LWC V2.00 B2112,2013-05-16 18:37:00,
2013-05-16 11:42:00,64.6,57.6,30.00,NW,312,3.0,3.0,78,0.00,,,0.00,LWC V2.00 B2112,2013-05-16 18:42:00,
2013-05-16 11:47:00,65.1,57.7,30.00,NNW,329,3.0,4.0,77,0.00,,,0.00,LWC V2.00 B2112,2013-05-16 18:47:00,
2013-05-16 11:52:00,65.6,57.8,30.00,NW,321,1.0,2.0,76,0.00,,,0.00,LWC V2.00 B2112,2013-05-16 18:52:00,
2013-05-16 11:57:00,65.8,58.0,30.00,ENE,65,2.0,3.0,76,0.00,,,0.00,LWC V2.00 B2112,2013-05-16 18:57:00,
2013-05-16 12:02:00,65.8,57.6,30.00,ESE,122,2.0,3.0,75,0.00,,,0.00,LWC V2.00 B2112,2013-05-16 19:02:00,
2013-05-16 12:07:00,66.3,58.1,30.00,WNW,295,2.0,3.0,75,0.00,,,0.00,LWC V2.00 B2112,2013-05-16 19:07:00,
2013-05-16 12:12:00,66.7,57.4,30.00,NW,318,1.0,10.0,72,0.00,,,0.00,LWC V2.00 B2112,2013-05-16 19:12:00,
2013-05-16 12:17:00,65.9,57.0,30.00,ENE,72,2.0,6.0,73,0.00,,,0.00,LWC V2.00 B2112,2013-05-16 19:17:00,
2013-05-16 12:22:00,65.6,57.1,30.00,South,191,0.0,6.0,74,0.00,,,0.00,LWC V2.00 B2112,2013-05-16 19:22:00,
2013-05-16 12:27:00,66.0,57.1,29.99,NW,306,1.0,6.0,73,0.00,,,0.00,LWC V2.00 B2112,2013-05-16 19:27:00,
2013-05-16 12:32:00,66.4,57.5,30.00,West,262,4.0,5.0,73,0.00,,,0.00,LWC V2.00 B2112,2013-05-16 19:32:00,
2013-05-16 12:37:00,66.2,56.9,30.00,West,259,8.0,8.0,72,0.00,,,0.00,LWC V2.00 B2112,2013-05-16 19:37:00,
2013-05-16 12:42:00,65.5,56.6,30.00,WSW,251,2.0,7.0,73,0.00,,,0.00,LWC V2.00 B2112,2013-05-16 19:42:00,
2013-05-16 12:47:00,65.0,56.9,29.99,WNW,288,1.0,4.0,75,0.00,,,0.00,LWC V2.00 B2112,2013-05-16 19:47:00,
2013-05-16 12:52:00,65.3,57.2,29.99,West,262,1.0,3.0,75,0.00,,,0.00,LWC V2.00 B2112,2013-05-16 19:52:00,
2013-05-16 12:57:00,65.5,57.0,29.99,NNW,343,2.0,3.0,74,0.00,,,0.00,LWC V2.00 B2112,2013-05-16 19:57:00,
2013-05-16 13:02:00,66.0,56.7,30.00,WSW,249,0.0,8.0,72,0.00,,,0.00,LWC V2.00 B2112,2013-05-16 20:02:00,
2013-05-16 13:07:00,65.4,56.5,30.00,SSW,195,2.0,5.0,73,0.00,,,0.00,LWC V2.00 B2112,2013-05-16 20:07:00,
2013-05-16 13:12:00,63.8,55.3,30.00,NE,44,4.0,4.0,74,0.00,,,0.00,LWC V2.00 B2112,2013-05-16 20:12:00,
2013-05-16 13:17:00,63.3,55.6,29.99,East,98,3.0,4.0,76,0.00,,,0.00,LWC V2.00 B2112,2013-05-16 20:17:00,
2013-05-16 13:22:00,62.7,55.0,30.00,NNW,341,2.0,4.0,76,0.00,,,0.00,LWC V2.00 B2112,2013-05-16 20:22:00,
2013-05-16 13:27:00,62.8,55.1,29.99,NE,39,2.0,6.0,76,0.00,,,0.00,LWC V2.00 B2112,2013-05-16 20:27:00,
2013-05-16 13:32:00,62.7,55.0,29.99,NNW,347,5.0,8.0,76,0.00,,,0.00,LWC V2.00 B2112,2013-05-16 20:32:00,
2013-05-16 13:37:00,63.0,55.3,29.99,NW,308,1.0,5.0,76,0.00,,,0.00,LWC V2.00 B2112,2013-05-16 20:37:00,
2013-05-16 13:42:00,63.4,55.3,29.99,NNE,15,2.0,6.0,75,0.00,,,0.00,LWC V2.00 B2112,2013-05-16 20:42:00,
2013-05-16 13:47:00,63.6,55.2,29.99,NNW,344,2.0,7.0,74,0.00,,,0.00,LWC V2.00 B2112,2013-05-16 20:47:00,
2013-05-16 13:52:00,63.6,54.0,29.99,SE,129,1.0,6.0,71,0.00,,,0.00,LWC V2.00 B2112,2013-05-16 20:52:00,
2013-05-16 13:57:00,63.5,54.7,29.99,East,81,3.0,5.0,73,0.00,,,0.00,LWC V2.00 B2112,2013-05-16 20:57:00,
2013-05-16 14:02:00,63.3,54.5,29.99,SSE,158,1.0,3.0,73,0.00,,,0.00,LWC V2.00 B2112,2013-05-16 21:02:00,
2013-05-16 14:07:00,63.2,54.0,29.99,East,82,2.0,5.0,72,0.00,,,0.00,LWC V2.00 B2112,2013-05-16 21:07:00,
2013-05-16 14:12:00,63.3,53.7,29.99,WNW,297,1.0,5.0,71,0.00,,,0.00,LWC V2.00 B2112,2013-05-16 21:12:00,
2013-05-16 14:17:00,63.4,53.8,29.99,WNW,301,1.0,6.0,71,0.00,,,0.00,LWC V2.00 B2112,2013-05-16 21:17:00,
2013-05-16 14:22:00,63.9,53.9,29.99,WSW,252,3.0,5.0,70,0.00,,,0.00,LWC V2.00 B2112,2013-05-16 21:22:00,
2013-05-16 14:27:00,63.8,53.4,29.99,East,89,3.0,8.0,69,0.00,,,0.00,LWC V2.00 B2112,2013-05-16 21:27:00,
2013-05-16 14:32:00,63.8,53.4,29.99,NE,37,2.0,2.0,69,0.00,,,0.00,LWC V2.00 B2112,2013-05-16 21:32:00,
2013-05-16 14:37:00,63.9,53.5,29.99,ESE,105,1.0,5.0,69,0.00,,,0.00,LWC V2.00 B2112,2013-05-16 21:37:00,
2013-05-16 14:42:00,63.5,53.9,30.00,South,190,0.0,9.0,71,0.00,,,0.00,LWC V2.00 B2112,2013-05-16 21:42:00,
2013-05-16 14:47:00,63.6,54.4,29.99,West,278,0.0,4.0,72,0.00,,,0.00,LWC V2.00 B2112,2013-05-16 21:47:00,
2013-05-16 14:52:00,63.0,53.8,29.99,NE,36,2.0,9.0,72,0.00,,,0.00,LWC V2.00 B2112,2013-05-16 21:52:00,
2013-05-16 14:57:00,62.6,53.8,29.99,North,351,4.0,7.0,73,0.00,,,0.00,LWC V2.00 B2112,2013-05-16 21:57:00,
2013-05-16 15:02:00,62.6,54.2,29.99,ESE,105,1.0,3.0,74,0.00,,,0.00,LWC V2.00 B2112,2013-05-16 22:02:00,
2013-05-16 15:07:00,63.4,54.2,29.99,NW,308,3.0,3.0,72,0.00,,,0.00,LWC V2.00 B2112,2013-05-16 22:07:00,
2013-05-16 15:12:00,63.8,54.6,29.99,East,94,1.0,2.0,72,0.00,,,0.00,LWC V2.00 B2112,2013-05-16 22:12:00,
2013-05-16 15:17:00,64.1,54.5,29.98,West,263,1.0,7.0,71,0.00,,,0.00,LWC V2.00 B2112,2013-05-16 22:17:00,
2013-05-16 15:22:00,63.9,54.7,29.98,ESE,115,1.0,2.0,72,0.00,,,0.00,LWC V2.00 B2112,2013-05-16 22:22:00,
2013-05-16 15:27:00,64.1,54.1,29.98,WSW,250,2.0,7.0,70,0.00,,,0.00,LWC V2.00 B2112,2013-05-16 22:27:00,
2013-05-16 15:32:00,64.0,54.0,29.98,East,92,1.0,4.0,70,0.00,,,0.00,LWC V2.00 B2112,2013-05-16 22:32:00,
2013-05-16 15:37:00,64.7,54.7,29.98,North,352,2.0,2.0,70,0.00,,,0.00,LWC V2.00 B2112,2013-05-16 22:37:00,
2013-05-16 15:42:00,65.1,54.3,29.98,NE,36,3.0,3.0,68,0.00,,,0.00,LWC V2.00 B2112,2013-05-16 22:42:00,
2013-05-16 15:47:00,64.8,53.6,29.97,WSW,240,1.0,5.0,67,0.00,,,0.00,LWC V2.00 B2112,2013-05-16 22:47:00,
2013-05-16 15:52:00,64.7,53.9,29.97,SE,134,0.0,3.0,68,0.00,,,0.00,LWC V2.00 B2112,2013-05-16 22:52:00,
2013-05-16 15:57:00,64.4,53.6,29.98,NNW,340,1.0,4.0,68,0.00,,,0.00,LWC V2.00 B2112,2013-05-16 22:57:00,
2013-05-16 16:02:00,64.2,53.4,29.98,NW,308,1.0,5.0,68,0.00,,,0.00,LWC V2.00 B2112,2013-05-16 23:02:00,
2013-05-16 16:07:00,64.1,53.7,29.98,ESE,118,1.0,5.0,69,0.00,,,0.00,LWC V2.00 B2112,2013-05-16 23:07:00,
2013-05-16 16:12:00,63.6,53.6,29.97,North,357,4.0,4.0,70,0.00,,,0.00,LWC V2.00 B2112,2013-05-16 23:12:00,
2013-05-16 16:17:00,63.8,54.2,29.97,West,273,2.0,3.0,71,0.00,,,0.00,LWC V2.00 B2112,2013-05-16 23:17:00,
2013-05-16 16:22:00,63.9,53.9,29.97,NE,49,3.0,7.0,70,0.00,,,0.00,LWC V2.00 B2112,2013-05-16 23:22:00,
2013-05-16 16:27:00,63.4,53.8,29.97,WSW,238,2.0,5.0,71,0.00,,,0.00,LWC V2.00 B2112,2013-05-16 23:27:00,
2013-05-16 16:32:00,63.1,54.3,29.97,ENE,67,0.0,1.0,73,0.00,,,0.00,LWC V2.00 B2112,2013-05-16 23:32:00,
2013-05-16 16:37:00,63.2,54.0,29.97,East,99,0.0,10.0,72,0.00,,,0.00,LWC V2.00 B2112,2013-05-16 23:37:00,
2013-05-16 16:42:00,63.4,54.2,29.97,SSE,151,1.0,5.0,72,0.00,,,0.00,LWC V2.00 B2112,2013-05-16 23:42:00,
2013-05-16 16:47:00,63.3,54.1,29.97,NNE,27,5.0,8.0,72,0.00,,,0.00,LWC V2.00 B2112,2013-05-16 23:47:00,
2013-05-16 16:52:00,63.2,54.0,29.97,East,96,3.0,3.0,72,0.00,,,0.00,LWC V2.00 B2112,2013-05-16 23:52:00,
2013-05-16 16:57:00,63.0,53.8,29.97,North,355,2.0,9.0,72,0.00,,,0.00,LWC V2.00 B2112,2013-05-16 23:57:00,
2013-05-16 17:02:00,62.4,53.6,29.97,NW,312,3.0,4.0,73,0.00,,,0.00,LWC V2.00 B2112,2013-05-17 00:02:00,
2013-05-16 17:07:00,61.7,53.3,29.97,SE,124,2.0,8.0,74,0.00,,,0.00,LWC V2.00 B2112,2013-05-17 00:07:00,
2013-05-16 17:12:00,61.3,53.7,29.97,East,99,2.0,2.0,76,0.00,,,0.00,LWC V2.00 B2112,2013-05-17 00:12:00,
2013-05-16 17:17:00,61.1,53.5,29.97,SSE,156,1.0,6.0,76,0.00,,,0.00,LWC V2.00 B2112,2013-05-17 00:17:00,
2013-05-16 17:22:00,60.7,53.4,29.97,SE,138,3.0,5.0,77,0.00,,,0.00,LWC V2.00 B2112,2013-05-17 00:22:00,
2013-05-16 17:27:00,60.4,53.5,29.97,NNW,347,3.0,10.0,78,0.00,,,0.00,LWC V2.00 B2112,2013-05-17 00:27:00,
2013-05-16 17:32:00,60.4,53.5,29.97,SSW,201,1.0,5.0,78,0.00,,,0.00,LWC V2.00 B2112,2013-05-17 00:32:00,
2013-05-16 17:37:00,60.4,53.5,29.97,SW,232,3.0,5.0,78,0.00,,,0.00,LWC V2.00 B2112,2013-05-17 00:37:00,
2013-05-16 17:42:00,60.2,53.3,29.96,NW,319,4.0,4.0,78,0.00,,,0.00,LWC V2.00 B2112,2013-05-17 00:42:00,
2013-05-16 17:47:00,60.1,53.2,29.97,North,1,1.0,5.0,78,0.00,,,0.00,LWC V2.00 B2112,2013-05-17 00:47:00,
2013-05-16 17:52:00,60.1,53.6,29.96,NNE,30,2.0,3.0,79,0.00,,,0.00,LWC V2.00 B2112,2013-05-17 00:52:00,
2013-05-16 17:57:00,60.2,53.3,29.96,SSE,150,0.0,3.0,78,0.00,,,0.00,LWC V2.00 B2112,2013-05-17 00:57:00,
2013-05-16 18:02:00,60.2,53.3,29.96,SSE,151,2.0,4.0,78,0.00,,,0.00,LWC V2.00 B2112,2013-05-17 01:02:00,
2013-05-16 18:07:00,59.6,53.1,29.96,NW,323,1.0,4.0,79,0.00,,,0.00,LWC V2.00 B2112,2013-05-17 01:07:00,
2013-05-16 18:12:00,59.3,53.1,29.96,NW,305,1.0,5.0,80,0.00,,,0.00,LWC V2.00 B2112,2013-05-17 01:12:00,
2013-05-16 18:17:00,59.1,52.9,29.96,WNW,302,4.0,10.0,80,0.00,,,0.00,LWC V2.00 B2112,2013-05-17 01:17:00,
2013-05-16 18:22:00,59.0,53.2,29.96,North,353,3.0,6.0,81,0.00,,,0.00,LWC V2.00 B2112,2013-05-17 01:22:00,
2013-05-16 18:27:00,58.6,52.8,29.96,ESE,109,2.0,4.0,81,0.00,,,0.00,LWC V2.00 B2112,2013-05-17 01:27:00,
2013-05-16 18:32:00,58.3,52.8,29.96,ESE,113,1.0,3.0,82,0.00,,,0.00,LWC V2.00 B2112,2013-05-17 01:32:00,
2013-05-16 18:37:00,58.0,52.9,29.96,NE,53,0.0,5.0,83,0.00,,,0.00,LWC V2.00 B2112,2013-05-17 01:37:00,
2013-05-16 18:42:00,57.8,52.7,29.95,NNE,25,2.0,3.0,83,0.00,,,0.00,LWC V2.00 B2112,2013-05-17 01:42:00,
2013-05-16 18:47:00,57.5,52.4,29.95,WSW,252,3.0,6.0,83,0.00,,,0.00,LWC V2.00 B2112,2013-05-17 01:47:00,
2013-05-16 18:52:00,57.2,52.4,29.95,NW,318,2.0,4.0,84,0.00,,,0.00,LWC V2.00 B2112,2013-05-17 01:52:00,
2013-05-16 18:57:00,57.0,52.2,29.95,East,99,4.0,5.0,84,0.00,,,0.00,LWC V2.00 B2112,2013-05-17 01:57:00,
2013-05-16 19:02:00,56.7,51.9,29.95,ENE,72,2.0,4.0,84,0.00,,,0.00,LWC V2.00 B2112,2013-05-17 02:02:00,
2013-05-16 19:07:00,56.5,51.7,29.95,West,271,1.0,2.0,84,0.00,,,0.00,LWC V2.00 B2112,2013-05-17 02:07:00,
2013-05-16 19:12:00,56.3,51.5,29.95,SE,138,1.0,5.0,84,0.00,,,0.00,LWC V2.00 B2112,2013-05-17 02:12:00,
2013-05-16 19:17:00,56.0,51.2,29.95,NE,49,2.0,5.0,84,0.00,,,0.00,LWC V2.00 B2112,2013-05-17 02:17:00,
2013-05-16 19:22:00,55.7,51.3,29.95,North,1,1.0,2.0,85,0.00,,,0.00,LWC V2.00 B2112,2013-05-17 02:22:00,
2013-05-16 19:27:00,55.6,51.2,29.95,East,94,0.0,4.0,85,0.00,,,0.00,LWC V2.00 B2112,2013-05-17 02:27:00,
2013-05-16 19:32:00,55.4,51.0,29.95,NNW,335,1.0,2.0,85,0.00,,,0.00,LWC V2.00 B2112,2013-05-17 02:32:00,
2013-05-16 19:37:00,55.2,50.8,29.95,NW,307,0.0,1.0,85,0.00,,,0.00,LWC V2.00 B2112,2013-05-17 02:37:00,
2013-05-16 19:42:00,55.1,51.0,29.95,ENE,63,0.0,2.0,86,0.00,,,0.00,LWC V2.00 B2112,2013-05-17 02:42:00,
2013-05-16 19:47:00,55.0,50.9,29.95,NNE,18,0.0,2.0,86,0.00,,,0.00,LWC V2.00 B2112,2013-05-17 02:47:00,
2013-05-16 19:52:00,54.9,50.8,29.95,NW,321,4.0,4.0,86,0.00,,,0.00,LWC V2.00 B2112,2013-05-17 02:52:00,
2013-05-16 19:57:00,54.9,51.1,29.95,NW,321,0.0,3.0,87,0.00,,,0.00,LWC V2.00 B2112,2013-05-17 02:57:00,
2013-05-16 20:02:00,54.8,51.0,29.95,NNE,33,1.0,3.0,87,0.00,,,0.00,LWC V2.00 B2112,2013-05-17 03:02:00,
2013-05-16 20:07:00,54.8,51.0,29.95,East,85,2.0,3.0,87,0.00,,,0.00,LWC V2.00 B2112,2013-05-17 03:07:00,
2013-05-16 20:12:00,54.7,50.9,29.95,ESE,111,1.0,5.0,87,0.00,,,0.00,LWC V2.00 B2112,2013-05-17 03:12:00,
2013-05-16 20:17:00,54.6,50.8,29.95,West,263,0.0,5.0,87,0.00,,,0.00,LWC V2.00 B2112,2013-05-17 03:17:00,
2013-05-16 20:22:00,54.5,51.0,29.95,SSW,211,1.0,4.0,88,0.00,,,0.00,LWC V2.00 B2112,2013-05-17 03:22:00,
2013-05-16 20:27:00,54.4,50.9,29.95,WNW,294,1.0,1.0,88,0.00,,,0.00,LWC V2.00 B2112,2013-05-17 03:27:00,
2013-05-16 20:32:00,54.4,50.9,29.95,NW,309,2.0,3.0,88,0.00,,,0.00,LWC V2.00 B2112,2013-05-17 03:32:00,
2013-05-16 20:37:00,54.3,50.8,29.95,NNW,336,0.0,1.0,88,0.00,,,0.00,LWC V2.00 B2112,2013-05-17 03:37:00,
2013-05-16 20:42:00,54.3,50.8,29.95,NW,319,1.0,6.0,88,0.00,,,0.00,LWC V2.00 B2112,2013-05-17 03:42:00,
2013-05-16 20:47:00,54.2,50.7,29.95,NNW,330,1.0,7.0,88,0.00,,,0.00,LWC V2.00 B2112,2013-05-17 03:47:00,
2013-05-16 20:52:00,54.2,50.7,29.96,NNW,343,0.0,5.0,88,0.00,,,0.00,LWC V2.00 B2112,2013-05-17 03:52:00,
2013-05-16 20:57:00,54.1,50.6,29.96,West,262,0.0,6.0,88,0.00,,,0.00,LWC V2.00 B2112,2013-05-17 03:57:00,
2013-05-16 21:01:00,54.1,50.6,29.96,East,98,1.0,6.0,88,0.00,,,0.00,LWC V2.00 B2112,2013-05-17 04:01:00,
2013-05-16 21:06:00,54.1,50.9,29.96,East,97,1.0,1.0,89,0.00,,,0.00,LWC V2.00 B2112,2013-05-17 04:06:00,
2013-05-16 21:11:00,54.0,50.5,29.96,NW,322,1.0,2.0,88,0.00,,,0.00,LWC V2.00 B2112,2013-05-17 04:11:00,
2013-05-16 21:16:00,53.9,50.4,29.96,WSW,248,1.0,5.0,88,0.00,,,0.00,LWC V2.00 B2112,2013-05-17 04:16:00,
2013-05-16 21:21:00,53.8,50.6,29.97,NW,312,1.0,4.0,89,0.00,,,0.00,LWC V2.00 B2112,2013-05-17 04:21:00,
2013-05-16 21:26:00,53.8,50.6,29.97,ESE,102,2.0,3.0,89,0.00,,,0.00,LWC V2.00 B2112,2013-05-17 04:26:00,
2013-05-16 21:31:00,53.8,50.6,29.97,SW,215,1.0,4.0,89,0.00,,,0.00,LWC V2.00 B2112,2013-05-17 04:31:00,
2013-05-16 21:36:00,53.7,50.5,29.97,SW,235,1.0,2.0,89,0.00,,,0.00,LWC V2.00 B2112,2013-05-17 04:36:00,
2013-05-16 21:41:00,53.7,50.5,29.98,SE,132,1.0,3.0,89,0.00,,,0.00,LWC V2.00 B2112,2013-05-17 04:41:00,
2013-05-16 21:46:00,53.6,50.4,29.97,NNE,30,0.0,0.0,89,0.00,,,0.00,LWC V2.00 B2112,2013-05-17 04:46:00,
2013-05-16 21:51:00,53.5,50.3,29.97,ESE,107,0.0,2.0,89,0.00,,,0.00,LWC V2.00 B2112,2013-05-17 04:51:00,
2013-05-16 21:56:00,53.3,50.1,29.98,ENE,69,3.0,5.0,89,0.00,,,0.00,LWC V2.00 B2112,2013-05-17 04:56:00,
2013-05-16 22:00:00,53.3,50.1,29.98,NNE,28,1.0,5.0,89,0.00,,,0.00,LWC V2.00 B2112,2013-05-17 05:00:00,
2013-05-16 22:01:00,53.3,50.1,29.98,NNW,333,1.0,4.0,89,0.00,,,0.00,LWC V2.00 B2112,2013-05-17 05:01:00,
2013-05-16 22:10:00,53.4,50.2,29.98,East,90,1.0,5.0,89,0.00,,,0.00,LWC V2.00 B2112,2013-05-17 05:10:00,
2013-05-16 22:20:00,53.4,50.2,29.98,East,90,1.0,5.0,89,0.00,,,0.00,LWC V2.00 B2112,2013-05-17 05:20:00,
2013-05-16 22:30:00,53.1,49.9,29.98,NNW,338,1.0,6.0,89,0.00,,,0.00,LWC V2.00 B2112,2013-05-17 05:30:00,
2013-05-16 22:40:00,53.1,49.9,29.98,NNW,338,1.0,6.0,89,0.00,,,0.00,LWC V2.00 B2112,2013-05-17 05:40:00,
2013-05-16 22:50:00,53.1,49.9,29.98,NNW,338,1.0,6.0,89,0.00,,,0.00,LWC V2.00 B2112,2013-05-17 05:50:00,
2013-05-16 23:00:00,53.0,49.8,29.97,East,90,1.0,9.0,89,0.00,,,0.00,LWC V2.00 B2112,2013-05-17 06:00:00,
2013-05-16 23:10:00,53.0,49.8,29.97,East,90,1.0,9.0,89,0.00,,,0.00,LWC V2.00 B2112,2013-05-17 06:10:00,
2013-05-16 23:20:00,53.0,49.8,29.97,East,90,1.0,9.0,89,0.00,,,0.00,LWC V2.00 B2112,2013-05-17 06:20:00,
2013-05-16 23:30:00,52.5,49.4,29.97,ESE,112,1.0,6.0,89,0.00,,,0.00,LWC V2.00 B2112,2013-05-17 06:30:00,
2013-05-16 23:40:00,52.5,49.4,29.97,ESE,112,1.0,6.0,89,0.00,,,0.00,LWC V2.00 B2112,2013-05-17 06:40:00,
2013-05-16 23:50:00,52.5,49.4,29.97,ESE,112,1.0,6.0,89,0.00,,,0.00,LWC V2.00 B2112,2013-05-17 06:50:00,